Location: Newark
(17.9939°S, 31.0481°E)
Time: 18:07:54
(UTC+00:00)

Courier 1B - Pass Details

Date: 20 November 2019
Orbit: 963 x 1209 km, 28.3° (Epoch: 14 December)

Event Time Altitude Azimuth Distance (km) Brightness Sun altitude
Rises 18:47:56 0° 246° (WSW) 4,031 11.7 -33.1°
Reaches altitude 10° 18:50:51 10° 240° (WSW) 3,096 10.9 -33.6°
Maximum altitude 18:58:18 49° 166° (SSE) 1,519 8.5 -35.0°
Enters shadow 18:58:51 48° 154° (SSE) 1,533 8.4 -35.1°
